This demonstration page uses our WeatherBlox Daily Observations layout. Learn more.

Left ArrowRight Arrow

38.20091, -84.87328

Hourly Observations for June 12, 2021

Temp ( °F °C ) Dew Point ( °F °C ) Humidity (%) Winds ( mph kmh ) Pressure ( in mb ) Visibility ( mi km ) Precip ( " mm )
12:53 am 00:53 Clear with Mist and Fog 69 20.6 67 19.4 93 93 Calm 29.80 1009 3 5 0.00 0.00
1:53 am 01:53 Clear 70 21.1 67 19.4 90 90 Calm 29.80 1009 7 11 0.00 0.00
2:53 am 02:53 Clear with Mist and Fog 69 20.6 66 18.9 90 90 WNW 3 6 29.80 1009 6 10 0.00 0.00
3:53 am 03:53 Clear 69 20.6 66 18.9 90 90 Calm 29.80 1009 10 16 0.00 0.00
4:53 am 04:53 Clear with Mist and Fog 68 20 66 18.9 93 93 Calm 29.80 1009 6 10 0.00 0.00
5:20 am 05:20 Clear with Mist and Fog 67 19.4 65 18.3 93 93 Calm 29.81 1010 2 3 0.00 0.00
5:22 am 05:22 Mostly Cloudy with Mist and Fog 67 19.4 65 18.3 93 93 Calm 29.80 1009 1 2 0.00 0.00
5:31 am 05:31 Mostly Cloudy with Fog 67 19.4 65 18.3 93 93 Calm 29.80 1009 1 1 0.00 0.00
5:48 am 05:48 Mostly Clear with Mist and Fog 64 18 64 18 100 100 Calm 29.82 1010 1 2 0.00 0.00
5:53 am 05:53 Mostly Cloudy with Mist and Fog 66 18.9 64 17.8 93 93 S 3 6 29.80 1009 1 2 0.00 0.00
6:00 am 06:00 Clear with Mist and Fog 66 18.9 64 17.8 93 93 Calm 29.81 1010 1 2 0.00 0.00
6:08 am 06:08 Clear with Mist and Fog 67 19.4 65 18.3 93 93 Calm 29.81 1010 3 5 0.00 0.00
6:13 am 06:13 Mostly Clear with Mist and Fog 66 18.9 64 17.8 93 93 Calm 29.81 1010 3 4 0.00 0.00
6:36 am 06:36 Mostly Cloudy with Mist and Fog 67 19.4 64 17.8 91 91 Calm 29.82 1010 1 2 0.00 0.00
6:44 am 06:44 Mostly Cloudy with Fog 67 19.4 64 17.8 91 91 Calm 29.83 1010 0 0 0.00 0.00
6:53 am 06:53 Mostly Cloudy with Fog 67 19.4 64 17.8 91 91 Calm 29.83 1010 0 0 0.00 0.00
6:59 am 06:59 Partly Cloudy with Mist and Fog 67 19.4 65 18.3 93 93 Calm 29.83 1010 2 2 0.00 0.00
7:01 am 07:01 Partly Cloudy with Mist and Fog 67 19.4 65 18.3 93 93 Calm 29.83 1010 3 5 0.00 0.00
7:07 am 07:07 Partly Cloudy with Mist and Fog 67 19.4 65 18.3 93 93 Calm 29.83 1010 2 3 0.00 0.00
7:10 am 07:10 Mostly Cloudy with Mist and Fog 68 20 65 18.3 90 90 Calm 29.83 1010 1 1 0.00 0.00
7:20 am 07:20 Partly Cloudy with Mist and Fog 68 20 66 18.9 93 93 Calm 29.83 1010 1 2 0.00 0.00
7:34 am 07:34 Partly Cloudy with Mist and Fog 69 20.6 67 19.4 93 93 Calm 29.83 1010 4 6 0.00 0.00
7:53 am 07:53 Mostly Sunny 72 22.2 68 20 87 87 Calm 29.83 1010 10 16 0.00 0.00
8:53 am 08:53 Sunny 76 24.4 70 21.1 82 82 NNE 3 6 29.83 1010 10 16 0.00 0.00
9:53 am 09:53 Sunny 79 26.1 72 22.2 79 79 VRB 3 6 29.85 1011 10 16 0.00 0.00
10:53 am 10:53 Sunny 83 28.3 72 22.2 70 70 VRB 3 6 29.84 1011 10 16 0.00 0.00
11:53 am 11:53 Partly Cloudy 86 30 73 22.8 65 65 ENE 6 9 29.85 1011 10 16 0.00 0.00
12:53 pm 12:53 Sunny 87 30.6 71 21.7 59 59 NW 6 9 29.84 1011 10 16 0.00 0.00
1:53 pm 13:53 Partly Cloudy 89 31.7 70 21.1 53 53 E 6 9 29.83 1010 10 16 0.00 0.00
2:53 pm 14:53 Sunny 90 32.2 70 21.1 52 52 WNW 5 7 29.82 1010 10 16 0.00 0.00
3:53 pm 15:53 Mostly Sunny 91 32.8 68 20 47 47 NW 8 13 29.81 1009 10 16 0.00 0.00
4:53 pm 16:53 Sunny 92 33.3 68 20 46 46 NNW 9 15 29.81 1009 10 16 0.00 0.00
5:53 pm 17:53 Sunny 81 27.2 69 20.6 67 67 SE 7 11 29.82 1010 10 16 0.08 2.03
6:53 pm 18:53 Sunny 84 28.9 68 20 59 59 ENE 6 9 29.81 1010 10 16 0.00 0.00
7:53 pm 19:53 Sunny 82 27.8 69 20.6 65 65 SSE 6 9 29.81 1010 10 16 0.00 0.00
8:53 pm 20:53 Sunny 77 25 69 20.6 77 77 SSW 3 6 29.82 1010 10 16 0.00 0.00
9:53 pm 21:53 Clear 76 24.4 68 20 77 77 SSW 5 7 29.83 1010 10 16 0.00 0.00
10:53 pm 22:53 Clear 75 23.9 68 20 79 79 SSW 3 6 29.85 1011 10 16 0.00 0.00
11:53 pm 23:53 Clear 73 22.8 68 20 84 84 Calm 29.87 1012 10 16 0.00 0.00

Powered by AerisWeather